You are on page 1of 12

,

ESTUDIO DE TIEMPOS DE RECORRIDO Y DEMORAS EN TRANSPORTE PUBLICO COL.

Fecha (D.M.A) 12/10/2 Hora Inicio 12:56:35
Localizacion
Dia: Domingo Hora Final 14:01:50

Ruta N°: 1 N° Vehiculo: 213
Empresa : Unitransa
Terminal de salida: UIS Sentido: UIS Tipo Vehiculo: BUS

CRUCE CON VIA TIEMPO ACUMULADO DE DEMORA
VIA RECORRIDA
TRANSVERSAL INICIO (min-s) FINAL (min-s)
CALLE 9 CARRERA 25 00:00:00 0:01:45
CALLE 9 CARRERA 25 00:00:00 0:11:47
CALLE 9 CARRERA 24 00:00:00 0:08:00
CALLE 9 00:00:00 0:15:39
CALLE 9 00:00:00 0:35:45
CALLE 9 00:00:00 0:15
CALLE 14 CARRERA 23 00:00:00 0:02:35
CALLE 14 CARRERA 26 00:00:00 0:12:45
CALLE 14 CARRERA 27 00:00:00 0:07:45
CALLE 14 CARRERA 30 00:00:00 0:05:45
CARRERA 30 00:00:00 09:45.0
CARRERA 30 00:00:00 00:11.1
CARRERA 30 00:00:00 0:16:45
CARRERA 30 00:00:00 0:11:45
CARRERA 33 CALLE 32 00:00:00 0:12:54
CARRERA 33 00:00:00 0:09:11
CARRERA 33 CALLE 34 00:00:00 0:15:45
CARRERA 33 CALLE 35 00:00:00 0:13:12
CARRERA 33 00:00:00 0:15:54
CARRERA 33 CALLE 38 00:00:00 0:03:45
CARRERA 33 CALLE 41 00:00:00 0:09:58
CARRERA 33 CALLE 44 00:00:00 0:20:45
CARRERA 33 CALLE 45 00:00:00 0:16:56
CARRERA 33 CALLE 47 00:00:00 0:04:47
CARRERA 33 CALLE 48 00:00:00 0:12:15
CARRERA 33 CALLE 48 00:00:00 0:07:45
CARRERA 33 CALLE 49 00:00:00 2:32:15
CARRERA 33 CALLE 50 00:00:00 00:09.5
CARRERA 33 CALLE 51 00:00:00 02:12.0
CARRERA 33 CALLE 51 00:00:00 0:16:45
CARRERA 33 CALLE 51 A 00:00:00 0:10:15
CARRERA 33 CALLE 51 B 00:00:00 1:30:15
CARRERA 33 CALLE 52 00:00:00 0:07:45
CARRERA 33 CALLE 53 00:00:00 1:39:45
CARRERA 33 CALLE 54 00:00:00 00:09.5
CARRERA 33 CALLE 55 00:00:00 00:11.0
CARRERA 33 CALLE 56 00:00:00 0:16:45
CARRERA 33 CALLE 60 00:00:00 0:12:45

CALLE 70 00:00:00 0:04:12 CALLE 70 00:00:00 0:09:11 CALLE 70 00:00:00 0:04:52 CALLE 70 00:00:00 0:06:45 CALLE 70 00:00:00 0:15:54 PALENQUE 00:00:00 0:19:32 GIRON CALLE 44 00:00:00 0:09:58 GIRON CALLE 41 00:00:00 0:14:01 GIRON CALLE 38 00:00:00 0:16:56 GIRON ESTACION DE SERVICIO 00:00:00 0:10:14 GIRON AV LOS CANEYES 00:00:00 0:02:35 GIRON AV LOS CANEYES 00:00:00 0:15:42 GIRON AV LOS CANEYES 00:00:00 0:04:45 GIRON CARRERA 26 00:00:00 0:46:36 GIRON CARRERA 26 00:00:00 0:12:00 .

16 0:13:32 PASAJEROS DESEMPEÑO 80.865 ACUMULADO DEMORA O Velocidad comercial 24.32 0:01:45 PASAJEROS Velocidad operacional 30. [hr:min:s] NSPORTE PUBLICO COL. �_𝑝𝑎𝑠𝑎𝑗𝑒𝑟𝑜𝑠 11:51:31 �_𝑎�𝑎𝑠𝑐𝑜 0:28:45 Hoja �_𝑠𝑒𝑚𝑎𝑓𝑜𝑟𝑜 0:56:49 UIS De �_𝑐𝑎𝑚𝑖𝑛𝑎�𝑎 1:15:30 �_�𝑝𝑖 0:12:15 N° Orden: �_𝑝𝑎𝑟𝑒 0:15:59 �_(𝑇𝑂𝑇𝐴𝐿 𝑅𝐸𝐶𝑂𝑅𝑅𝐼𝐷𝑂) 1:05:15 TIEMPO TOTAL CAUSA DE LA DESEMPEÑ Longitud 19.65 0:21:32 ATASCO 0:37:11 PASAJEROS 1:12:56 CAMINATA 1:28:01 PASAJEROS 1:30:36 PASAJEROS 1:43:21 CAMINATA 1:51:06 PASAJEROS 1:56:51 PARE 2:06:36 PASAJEROS 2:06:47 PASAJEROS 2:23:32 PASAJEROS 2:35:17 SEMAFORO 2:48:11 PASAJEROS 2:57:22 SEMAFORO 3:13:07 PASAJEROS 3:26:19 PASAJEROS 3:42:13 PASAJEROS 3:45:58 PASAJEROS 3:55:56 PASAJEROS 4:16:41 ATASCO 4:33:37 SEMAFORO 4:38:24 PASAJEROS 4:50:39 TPI 4:58:24 PASAJEROS 7:30:39 PASAJEROS 7:30:49 PASAJEROS 7:33:01 SEMAFORO 7:49:46 CAMINATA 8:00:01 CAMINATA 9:30:16 PASAJEROS 9:38:01 PASAJEROS 11:17:46 PASAJEROS 11:17:55 PASAJEROS 11:18:06 PASAJEROS 11:34:51 SEMAFORO 11:47:36 PASAJEROS .

11:51:48 PASAJEROS 12:00:59 PASAJEROS 12:05:51 PASAJEROS 13 12:12:36 PASAJEROS 21 12:28:30 PASAJEROS 12:48:02 PASAJEROS 12:58:00 PASAJEROS 13:12:01 PASAJEROS 13:28:57 PASAJEROS 13:39:11 PARE 13:41:46 PASAJEROS 13:57:28 PASAJEROS 14:02:13 PASAJEROS 14:48:49 PASAJEROS 15:00:49 PASAJEROS .

81667 [km] [km/h] [km/h] % .22306 0 0 0.02083 0.07778 15 0. [hr] 0.02194 0.00417 0.00416667 0.00416667 0.03333 0.

0.21666667 0.00583333 0.2225 .

0 .1 CALLE 70 00:00:00 0:02:37 CALLE 70 00:00:00 0:03:02 CALLE 70 CALLE 32 00:00:00 0:06:14 CALLE 70 00:00:00 0:07:10 CALLE 70 CALLE 34 00:00:00 0:02:10 CARRERA 33 LA PRESENTACION 00:00:00 0:02:29 CARRERA 33 CALLE 56 00:00:00 0:04:48 CARRERA 33 CALLE 55 00:00:00 0:06:14 CARRERA 33 CALLE 54 00:00:00 0:06:52 CARRERA 33 CALLE 53 00:00:00 0:12:34 CARRERA 33 CALLE 52 00:00:00 0:01:46 CARRERA 33 CALLE 51 00:00:00 0:06:32 CARRERA 33 CALLE 50 00:00:00 0:12:15 CARRERA 33 CALLE 49 00:00:00 0:07:45 CARRERA 33 CALLE 48 00:00:00 00:09.A) 12/10/2 Hora Inicio 14:01:50 Localizacion Dia: Domingo Hora Final 15:06:12 Ruta N°: 1 N° Vehiculo: 213 Empresa : Unitransa Terminal de salida: UIS Sentido: UIS Tipo Vehiculo: BUS CRUCE CON VIA TIEMPO ACUMULADO DE DEMORA VIA RECORRIDA TRANSVERSAL INICIO (min-s) FINAL (min-s) GIRON CARRERA 26 00:00:00 0:02:45 GIRON CARRERA 26 00:00:00 0:06:12 GIRON CARRERA 26 00:00:00 0:08:43 GIRON CARRERA 26 00:00:00 0:04:15 GIRON AV LOS CANEYES 00:00:00 0:09:32 GIRON AV LOS CANEYES 00:00:00 0:07 GIRON AV LOS CANEYES 00:00:00 0:05:45 GIRON CALLE37 00:00:00 0:10:45 GIRON CALLE 39 00:00:00 0:06:41 PALENQUE CALLE 42 00:00:00 0:03:24 CALLE 70 CHEVROLET 00:00:00 06:25. Fecha (D.5 CARRERA 33 CALLE 47 00:00:00 0:04:12 CARRERA 33 CALLE 46 00:00:00 0:09:11 CARRERA 33 CALLE 45 00:00:00 0:04:52 CARRERA 33 CALLE 44 00:00:00 0:06:45 CARRERA 33 CALLE 43 00:00:00 0:09:58 CARRERA 33 CALLE 42 00:00:00 0:02:35 CARRERA 33 CALLE 41 00:00:00 0:04:45 CARRERA 33 CALLE 40 00:00:00 41:35. ESTUDIO DE TIEMPOS DE RECORRIDO Y DEMORAS EN TRANSPORTE PUBLICO COL.0 CALLE 70 00:00:00 00:11.M..

CARRERA 33 CALLE 39 00:00:00 00:11.0 CARRERA 33 CALLE 38 00:00:00 0:16:45 CARRERA 33 CALLE 37 00:00:00 0:12:45 CARRERA 33 CALLE 36 00:00:00 0:04:12 CARRERA 30 CALLE 35 00:00:00 0:09:11 CARRERA 30 CALLE 34 00:00:00 0:04:52 CARRERA 30 CALLE 33 00:00:00 0:06:45 CARRERA 30 CALLE 32 00:00:00 0:15:54 CALLE 14 ESTADIO 00:00:00 0:19:32 CALLE 14 CARRERA 30 00:00:00 0:09:58 CALLE 14 CARRERA 27 00:00:00 0:14:01 CALLE 14 CARRERA 26 00:00:00 0:16:56 .

32 0:02:45 PASAJEROS Velocidad operacional 29.99 0:08:57 PASAJEROS DESEMPEÑO 81. �_𝑝𝑎𝑠𝑎𝑗𝑒𝑟𝑜𝑠 3:57:16 �_𝑎�𝑎𝑠𝑐𝑜 0:19:26 Hoja �_𝑠𝑒𝑚𝑎𝑓𝑜𝑟𝑜 0:51:42 UIS De �_𝑐𝑎𝑚𝑖𝑛𝑎�𝑎 0:19:56 �_�𝑝𝑖 0:12:15 N° Orden: �_𝑝𝑎𝑟𝑒 0:28:39 �_(𝑇𝑂𝑇𝐴𝐿 𝑅𝐸𝐶𝑂𝑅𝑅𝐼𝐷𝑂) 1:04:22 TIEMPO TOTAL CAUSA DE LA DESEMPEÑ Longitud 19. [hr:min:s] SPORTE PUBLICO COL.865 ACUMULADO DEMORA O Velocidad comercial 24.12 0:17:40 PASAJEROS 0:21:55 PASAJEROS 0:31:27 PARE 0:38:30 PASAJEROS 0:44:15 PARE 0:55:00 CAMINATA 1:01:41 PASAJEROS 1:05:05 PARE 1:11:30 PASAJEROS 1:11:41 PASAJEROS 1:14:18 PASAJEROS 1:17:20 PASAJEROS 1:23:34 PASAJEROS 1:30:44 PASAJEROS 1:32:54 PASAJEROS 1:35:23 PASAJEROS 1:40:11 SEMAFORO 1:46:25 PASAJEROS 1:53:17 ATASCO 2:05:51 ATASCO 2:07:37 SEMAFORO 2:14:09 PASAJEROS 2:26:24 TPI 2:34:09 PASAJEROS 2:34:19 SEMAFORO 2:38:31 PASAJEROS 2:47:42 CAMINATA 2:52:34 SEMAFORO 2:59:19 PASAJEROS 3:09:17 PASAJEROS 3:11:52 SEMAFORO 3:16:37 PASAJEROS 3:58:12 PASAJEROS .

3:58:23 PASAJEROS 4:15:08 SEMAFORO 4:27:53 PASAJEROS 4:32:05 PASAJEROS 4:41:16 PASAJEROS 4:46:08 SEMAFORO 13 4:52:53 PASAJEROS 21 5:08:47 SEMAFORO 5:28:19 PASAJEROS 5:38:17 PARE 5:52:18 PASAJEROS 6:09:14 PASAJEROS .

81667 [km] [km/h] [km/h] % .06555 0 0 0.01417 0.00528 0. [hr] 0.00778 0.00777778 0.00333 0.12366 28 0.00777778 0.

2225 .0.00583333 0.21666667 0.